Time,TemperatureF,DewpointF,PressureIn,WindDirection,WindDirectionDegrees,WindSpeedMPH,WindSpeedGustMPH,Humidity,HourlyPrecipIn,Conditions,Clouds,dailyrainin,SolarRadiationWatts/m^2,SoftwareType,DateUTC
2013-01-20 00:02:00,50.0,9.0,-100.00,ENE,75,3.0,11.0,19,0.00,,,0.00,0.000000,,2013-01-20 08:02:00,
2013-01-20 00:12:00,50.0,9.0,-100.00,ENE,75,3.0,11.0,19,0.00,,,0.00,0.000000,,2013-01-20 08:12:00,
2013-01-20 00:22:00,50.0,9.0,-100.00,ENE,75,3.0,11.0,19,0.00,,,0.00,0.000000,,2013-01-20 08:22:00,
2013-01-20 00:32:00,50.0,9.0,-100.00,ENE,75,3.0,11.0,19,0.00,,,0.00,0.000000,,2013-01-20 08:32:00,
2013-01-20 00:52:00,53.0,13.0,-100.00,ENE,57,5.0,8.0,20,0.00,,,0.00,0.000000,,2013-01-20 08:52:00,
2013-01-20 01:02:00,53.0,13.0,-100.00,ENE,57,5.0,8.0,20,0.00,,,0.00,0.000000,,2013-01-20 09:02:00,
2013-01-20 01:12:00,53.0,13.0,-100.00,ENE,57,5.0,8.0,20,0.00,,,0.00,0.000000,,2013-01-20 09:12:00,
2013-01-20 01:22:00,53.0,13.0,-100.00,ENE,57,5.0,8.0,20,0.00,,,0.00,0.000000,,2013-01-20 09:22:00,
2013-01-20 01:33:00,53.0,13.0,-100.00,ENE,57,5.0,8.0,20,0.00,,,0.00,0.000000,,2013-01-20 09:33:00,
2013-01-20 01:52:00,50.0,11.0,-100.00,East,87,2.0,8.0,20,0.00,,,0.00,0.000000,,2013-01-20 09:52:00,
2013-01-20 02:02:00,50.0,11.0,-100.00,East,87,2.0,8.0,20,0.00,,,0.00,0.000000,,2013-01-20 10:02:00,
2013-01-20 02:12:00,50.0,11.0,-100.00,East,87,2.0,8.0,20,0.00,,,0.00,0.000000,,2013-01-20 10:12:00,
2013-01-20 02:22:00,50.0,11.0,-100.00,East,87,2.0,8.0,20,0.00,,,0.00,0.000000,,2013-01-20 10:22:00,
2013-01-20 02:32:00,50.0,11.0,-100.00,East,87,2.0,8.0,20,0.00,,,0.00,0.000000,,2013-01-20 10:32:00,
2013-01-20 02:52:00,50.0,9.0,-100.00,ENE,76,4.0,10.0,19,0.00,,,0.00,0.000000,,2013-01-20 10:52:00,
2013-01-20 03:02:00,50.0,9.0,-100.00,ENE,76,4.0,10.0,19,0.00,,,0.00,0.000000,,2013-01-20 11:02:00,
2013-01-20 03:12:00,50.0,9.0,-100.00,ENE,76,4.0,10.0,19,0.00,,,0.00,0.000000,,2013-01-20 11:12:00,
2013-01-20 03:22:00,50.0,9.0,-100.00,ENE,76,4.0,10.0,19,0.00,,,0.00,0.000000,,2013-01-20 11:22:00,
2013-01-20 03:32:00,50.0,9.0,-100.00,ENE,76,4.0,10.0,19,0.00,,,0.00,0.000000,,2013-01-20 11:32:00,
2013-01-20 03:53:00,53.0,9.0,-100.00,ENE,68,5.0,13.0,17,0.00,,,0.00,0.000000,,2013-01-20 11:53:00,
2013-01-20 04:02:00,53.0,9.0,-100.00,ENE,68,5.0,13.0,17,0.00,,,0.00,0.000000,,2013-01-20 12:02:00,
2013-01-20 04:12:00,53.0,9.0,-100.00,ENE,68,5.0,13.0,17,0.00,,,0.00,0.000000,,2013-01-20 12:12:00,
2013-01-20 04:22:00,53.0,9.0,-100.00,ENE,68,5.0,13.0,17,0.00,,,0.00,0.000000,,2013-01-20 12:22:00,
2013-01-20 04:33:00,53.0,9.0,-100.00,ENE,68,5.0,13.0,17,0.00,,,0.00,0.000000,,2013-01-20 12:33:00,
2013-01-20 04:53:00,50.0,11.0,-100.00,ENE,64,4.0,9.0,20,0.00,,,-99.99,0.000000,,2013-01-20 12:53:00,
2013-01-20 05:02:00,50.0,11.0,-100.00,ENE,64,4.0,9.0,20,0.00,,,-99.99,0.000000,,2013-01-20 13:02:00,
2013-01-20 05:12:00,50.0,11.0,-100.00,ENE,64,4.0,9.0,20,0.00,,,-99.99,0.000000,,2013-01-20 13:12:00,
2013-01-20 05:22:00,50.0,11.0,-100.00,ENE,64,4.0,9.0,20,0.00,,,-99.99,0.000000,,2013-01-20 13:22:00,
2013-01-20 05:32:00,50.0,11.0,-100.00,ENE,64,4.0,9.0,20,0.00,,,-99.99,0.000000,,2013-01-20 13:32:00,
2013-01-20 05:53:00,52.0,10.0,-100.00,East,96,5.0,12.0,18,0.00,,,0.00,0.000000,,2013-01-20 13:53:00,
2013-01-20 06:02:00,52.0,10.0,-100.00,East,96,5.0,12.0,18,0.00,,,0.00,0.000000,,2013-01-20 14:02:00,
2013-01-20 06:12:00,52.0,10.0,-100.00,East,96,5.0,12.0,18,0.00,,,0.00,0.000000,,2013-01-20 14:12:00,
2013-01-20 06:22:00,52.0,10.0,-100.00,East,96,5.0,12.0,18,0.00,,,0.00,0.000000,,2013-01-20 14:22:00,
2013-01-20 06:32:00,52.0,10.0,-100.00,East,96,5.0,12.0,18,0.00,,,0.00,0.000000,,2013-01-20 14:32:00,
2013-01-20 06:53:00,52.0,9.0,-100.00,ENE,71,4.0,12.0,17,0.00,,,0.00,0.000000,,2013-01-20 14:53:00,
2013-01-20 07:03:00,52.0,9.0,-100.00,ENE,71,4.0,12.0,17,0.00,,,0.00,0.000000,,2013-01-20 15:03:00,
2013-01-20 07:12:00,52.0,9.0,-100.00,ENE,71,4.0,12.0,17,0.00,,,0.00,0.000000,,2013-01-20 15:12:00,
2013-01-20 07:22:00,52.0,9.0,-100.00,ENE,71,4.0,12.0,17,0.00,,,0.00,0.000000,,2013-01-20 15:22:00,
2013-01-20 07:32:00,52.0,9.0,-100.00,ENE,71,4.0,12.0,17,0.00,,,0.00,0.000000,,2013-01-20 15:32:00,
2013-01-20 07:53:00,50.0,7.0,-100.00,ENE,69,3.0,11.0,17,0.00,,,0.00,8.000000,,2013-01-20 15:53:00,
2013-01-20 08:02:00,50.0,7.0,-100.00,ENE,69,3.0,11.0,17,0.00,,,0.00,8.000000,,2013-01-20 16:02:00,
2013-01-20 08:12:00,50.0,7.0,-100.00,ENE,69,3.0,11.0,17,0.00,,,0.00,8.000000,,2013-01-20 16:12:00,
2013-01-20 08:22:00,50.0,7.0,-100.00,ENE,69,3.0,11.0,17,0.00,,,0.00,8.000000,,2013-01-20 16:22:00,
2013-01-20 08:32:00,50.0,7.0,-100.00,ENE,69,3.0,11.0,17,0.00,,,0.00,8.000000,,2013-01-20 16:32:00,
2013-01-20 08:53:00,56.0,12.0,-100.00,SSE,157,4.0,10.0,17,0.00,,,-99.99,74.000000,,2013-01-20 16:53:00,
2013-01-20 09:02:00,56.0,12.0,-100.00,SSE,157,4.0,10.0,17,0.00,,,-99.99,74.000000,,2013-01-20 17:02:00,
2013-01-20 09:12:00,56.0,12.0,-100.00,SSE,157,4.0,10.0,17,0.00,,,-99.99,74.000000,,2013-01-20 17:12:00,
2013-01-20 09:22:00,56.0,12.0,-100.00,SSE,157,4.0,10.0,17,0.00,,,-99.99,74.000000,,2013-01-20 17:22:00,
2013-01-20 09:32:00,56.0,12.0,-100.00,SSE,157,4.0,10.0,17,0.00,,,-99.99,74.000000,,2013-01-20 17:32:00,
2013-01-20 09:53:00,70.0,17.0,-100.00,SW,230,0.0,7.0,13,0.00,,,0.00,482.000000,,2013-01-20 17:53:00,
2013-01-20 10:02:00,70.0,17.0,-100.00,SW,230,0.0,7.0,13,0.00,,,0.00,482.000000,,2013-01-20 18:02:00,
2013-01-20 10:53:00,71.0,14.0,-100.00,West,279,1.0,5.0,11,-99.99,,,0.00,664.000000,,2013-01-20 18:53:00,
2013-01-20 11:02:00,71.0,14.0,-100.00,West,279,1.0,5.0,11,-99.99,,,0.00,664.000000,,2013-01-20 19:02:00,
2013-01-20 11:53:00,74.0,16.0,-100.00,West,267,2.0,7.0,11,0.00,,,0.00,706.000000,,2013-01-20 19:53:00,
2013-01-20 12:02:00,74.0,16.0,-100.00,West,267,2.0,7.0,11,0.00,,,0.00,706.000000,,2013-01-20 20:02:00,
2013-01-20 12:53:00,73.0,15.0,-100.00,WNW,290,4.0,9.0,11,-99.99,,,0.00,813.000000,,2013-01-20 20:53:00,
2013-01-20 13:03:00,73.0,15.0,-100.00,WNW,290,4.0,9.0,11,-99.99,,,0.00,813.000000,,2013-01-20 21:03:00,
2013-01-20 13:53:00,74.0,12.0,-100.00,West,273,2.0,8.0,9,-99.99,,,0.00,772.000000,,2013-01-20 21:53:00,
2013-01-20 14:03:00,74.0,12.0,-100.00,West,273,2.0,8.0,9,-99.99,,,0.00,772.000000,,2013-01-20 22:03:00,
2013-01-20 14:53:00,73.0,11.0,-100.00,WSW,255,2.0,8.0,9,-99.99,,,0.00,655.000000,,2013-01-20 22:53:00,
2013-01-20 15:03:00,73.0,11.0,-100.00,WSW,255,2.0,8.0,9,-99.99,,,0.00,655.000000,,2013-01-20 23:03:00,
2013-01-20 15:53:00,70.0,13.0,-100.00,WSW,252,0.0,9.0,11,0.00,,,0.00,428.000000,,2013-01-20 23:53:00,
2013-01-20 16:02:00,70.0,13.0,-100.00,WSW,252,0.0,9.0,11,0.00,,,0.00,428.000000,,2013-01-21 00:02:00,
2013-01-20 16:13:00,70.0,13.0,-100.00,WSW,252,0.0,9.0,11,0.00,,,0.00,428.000000,,2013-01-21 00:13:00,
2013-01-20 16:22:00,70.0,13.0,-100.00,WSW,252,0.0,9.0,11,0.00,,,0.00,428.000000,,2013-01-21 00:22:00,
2013-01-20 16:32:00,70.0,13.0,-100.00,WSW,252,0.0,9.0,11,0.00,,,0.00,428.000000,,2013-01-21 00:32:00,
2013-01-20 16:53:00,63.0,15.0,-100.00,West,270,0.0,6.0,15,0.00,,,0.00,28.000000,,2013-01-21 00:53:00,
2013-01-20 17:03:00,63.0,15.0,-100.00,West,270,0.0,6.0,15,0.00,,,0.00,28.000000,,2013-01-21 01:03:00,
2013-01-20 17:12:00,63.0,15.0,-100.00,West,270,0.0,6.0,15,0.00,,,0.00,28.000000,,2013-01-21 01:12:00,
2013-01-20 17:22:00,63.0,15.0,-100.00,West,270,0.0,6.0,15,0.00,,,0.00,28.000000,,2013-01-21 01:22:00,
2013-01-20 17:32:00,63.0,15.0,-100.00,West,270,0.0,6.0,15,0.00,,,0.00,28.000000,,2013-01-21 01:32:00,
2013-01-20 17:53:00,57.0,17.0,-100.00,NE,53,4.0,10.0,21,0.00,,,0.00,9.000000,,2013-01-21 01:53:00,
2013-01-20 18:03:00,57.0,17.0,-100.00,NE,53,4.0,10.0,21,0.00,,,0.00,9.000000,,2013-01-21 02:03:00,
2013-01-20 18:12:00,57.0,17.0,-100.00,NE,53,4.0,10.0,21,0.00,,,0.00,9.000000,,2013-01-21 02:12:00,
2013-01-20 18:22:00,57.0,17.0,-100.00,NE,53,4.0,10.0,21,0.00,,,0.00,9.000000,,2013-01-21 02:22:00,
2013-01-20 18:32:00,57.0,17.0,-100.00,NE,53,4.0,10.0,21,0.00,,,0.00,9.000000,,2013-01-21 02:32:00,
2013-01-20 18:53:00,56.0,18.0,-100.00,NE,49,3.0,10.0,22,0.00,,,0.00,0.000000,,2013-01-21 02:53:00,
2013-01-20 19:02:00,56.0,18.0,-100.00,NE,49,3.0,10.0,22,0.00,,,0.00,0.000000,,2013-01-21 03:02:00,
2013-01-20 19:12:00,56.0,18.0,-100.00,NE,49,3.0,10.0,22,0.00,,,0.00,0.000000,,2013-01-21 03:12:00,
2013-01-20 19:23:00,56.0,18.0,-100.00,NE,49,3.0,10.0,22,0.00,,,0.00,0.000000,,2013-01-21 03:23:00,
2013-01-20 19:32:00,56.0,18.0,-100.00,NE,49,3.0,10.0,22,0.00,,,0.00,0.000000,,2013-01-21 03:32:00,
2013-01-20 19:53:00,55.0,16.0,-100.00,NNE,12,4.0,12.0,21,0.00,,,0.00,0.000000,,2013-01-21 03:53:00,
2013-01-20 20:02:00,55.0,16.0,-100.00,NNE,12,4.0,12.0,21,0.00,,,0.00,0.000000,,2013-01-21 04:02:00,
2013-01-20 20:12:00,55.0,16.0,-100.00,NNE,12,4.0,12.0,21,0.00,,,0.00,0.000000,,2013-01-21 04:12:00,
2013-01-20 20:22:00,55.0,16.0,-100.00,NNE,12,4.0,12.0,21,0.00,,,0.00,0.000000,,2013-01-21 04:22:00,
2013-01-20 20:32:00,55.0,16.0,-100.00,NNE,12,4.0,12.0,21,0.00,,,0.00,0.000000,,2013-01-21 04:32:00,
2013-01-20 20:53:00,54.0,14.0,-100.00,ENE,67,5.0,12.0,20,0.00,,,0.00,0.000000,,2013-01-21 04:53:00,
2013-01-20 21:03:00,54.0,14.0,-100.00,ENE,67,5.0,12.0,20,0.00,,,0.00,0.000000,,2013-01-21 05:03:00,
2013-01-20 21:12:00,54.0,14.0,-100.00,ENE,67,5.0,12.0,20,0.00,,,0.00,0.000000,,2013-01-21 05:12:00,
2013-01-20 21:22:00,54.0,14.0,-100.00,ENE,67,5.0,12.0,20,0.00,,,0.00,0.000000,,2013-01-21 05:22:00,
2013-01-20 21:33:00,54.0,14.0,-100.00,ENE,67,5.0,12.0,20,0.00,,,0.00,0.000000,,2013-01-21 05:33:00,
2013-01-20 21:53:00,55.0,14.0,-100.00,ENE,58,5.0,15.0,19,0.00,,,-99.99,0.000000,,2013-01-21 05:53:00,
2013-01-20 22:02:00,55.0,14.0,-100.00,ENE,58,5.0,15.0,19,0.00,,,-99.99,0.000000,,2013-01-21 06:02:00,
2013-01-20 22:12:00,55.0,14.0,-100.00,ENE,58,5.0,15.0,19,0.00,,,-99.99,0.000000,,2013-01-21 06:12:00,
2013-01-20 22:22:00,55.0,14.0,-100.00,ENE,58,5.0,15.0,19,0.00,,,-99.99,0.000000,,2013-01-21 06:22:00,
2013-01-20 22:32:00,55.0,14.0,-100.00,ENE,58,5.0,15.0,19,0.00,,,-99.99,0.000000,,2013-01-21 06:32:00,
2013-01-20 22:53:00,55.0,12.0,-100.00,ENE,61,5.0,12.0,18,0.00,,,0.00,0.000000,,2013-01-21 06:53:00,
2013-01-20 23:02:00,55.0,12.0,-100.00,ENE,61,5.0,12.0,18,0.00,,,0.00,0.000000,,2013-01-21 07:02:00,
2013-01-20 23:12:00,55.0,12.0,-100.00,ENE,61,5.0,12.0,18,0.00,,,0.00,0.000000,,2013-01-21 07:12:00,
2013-01-20 23:22:00,55.0,12.0,-100.00,ENE,61,5.0,12.0,18,0.00,,,0.00,0.000000,,2013-01-21 07:22:00,
2013-01-20 23:53:00,51.0,17.0,-100.00,ENE,59,6.0,13.0,26,0.00,,,0.00,0.000000,,2013-01-21 07:53:00,